Clintonville, WI

8:35 AM CDT on May 21, 2018 (GMT -0500)
Clintonville Municipal

Weather History for KCLI - November, 2012

Change the Weather History Date:

Wednesday, November 21, 2012

  Actual Average Record
Temperature  
Mean Temperature 42 °F -  
Max Temperature 57 °F 40 °F 62 °F (1982)
Min Temperature 28 °F 21 °F 3 °F (2014)
Degree Days  
Heating Degree Days 22    
Moisture  
Dew Point 37 °F    
Average Humidity 83    
Maximum Humidity 100    
Minimum Humidity 48    
Precipitation  
Precipitation 0.00 in - - ()
Sea Level Pressure  
Sea Level Pressure 30.03 in    
Wind  
Wind Speed 3 mph (SSW)    
Max Wind Speed 13 mph    
Max Gust Speed 16 mph    
Visibility 5 miles    
Events Fog    
Averages and records for this station are not official NWS values.
T = Trace of Precipitation, MM = Missing Value Source: NWS Daily Summary

Daily Weather History Graph

Daily Weather History Graph

Search for Another Location

Airport or City:

Astronomy

Nov. 21, 2012 Rise Set
Actual Time 7:00 AM CST 4:21 PM CST
Civil Twilight 6:27 AM CST 4:53 PM CST
Nautical Twilight 5:52 AM CST 5:29 PM CST
Astronomical Twilight 5:17 AM CST 6:04 PM CST
Moon 12:51 PM CST 12:03 AM CST
Length of Visible Light 10h 25m
Length of Day
9h 21m
First Quarter, 62% of the Moon is Illuminated
Nov 21
First Quarter
Nov 28
Full
Dec 6
Last Quarter
Dec 13
New
Dec 19
First Quarter

Hourly Weather History & Observations

Time (CST) Temp. Windchill Dew Point Humidity Pressure Visibility Wind Dir Wind Speed Gust Speed Precip Events Conditions
12:15 AM 32.0 °F - 32.0 °F 100% 30.13 in 0.2 mi Calm Calm - N/A Fog Fog
12:35 AM 32.0 °F - 32.0 °F 100% 30.13 in 0.2 mi Calm Calm - N/A Fog Fog
12:55 AM 32.0 °F - 32.0 °F 100% 30.13 in 0.2 mi Calm Calm - N/A Fog Light Freezing Fog
1:15 AM 30.2 °F - 30.2 °F 100% 30.13 in 0.2 mi Calm Calm - N/A Fog Light Freezing Fog
1:35 AM 30.2 °F - 30.2 °F 100% 30.13 in 0.2 mi Calm Calm - N/A Fog Light Freezing Fog
1:55 AM 32.0 °F - 32.0 °F 100% 30.13 in 0.2 mi Calm Calm - N/A Fog Light Freezing Fog
2:15 AM 30.2 °F - 30.2 °F 100% 30.13 in 0.2 mi Calm Calm - N/A Fog Light Freezing Fog
2:35 AM 30.2 °F - 30.2 °F 100% 30.13 in 0.2 mi Calm Calm - N/A Fog Light Freezing Fog
2:55 AM 30.2 °F - 30.2 °F 100% 30.13 in 0.2 mi Calm Calm - N/A Fog Light Freezing Fog
3:15 AM 30.2 °F - 30.2 °F 100% 30.13 in 0.2 mi Calm Calm - N/A Fog Light Freezing Fog
3:35 AM 30.2 °F - 30.2 °F 100% 30.12 in 0.2 mi Calm Calm - N/A Fog Light Freezing Fog
4:15 AM 30.2 °F - 30.2 °F 100% 30.13 in 0.2 mi Calm Calm - N/A Fog Light Freezing Fog
4:35 AM 30.2 °F - 30.2 °F 100% 30.13 in 0.2 mi Calm Calm - N/A Fog Light Freezing Fog
4:55 AM 30.2 °F - 30.2 °F 100% 30.13 in 0.2 mi Calm Calm - N/A Fog Light Freezing Fog
5:15 AM 28.4 °F - 28.4 °F 100% 30.13 in 0.2 mi Calm Calm - N/A Fog Light Freezing Fog
5:35 AM 28.4 °F - 28.4 °F 100% 30.14 in 0.2 mi Calm Calm - N/A Fog Light Freezing Fog
5:55 AM - - - N/A% 30.13 in 0.2 mi Calm Calm - N/A Fog Fog
6:15 AM - - - N/A% 30.12 in 0.2 mi Calm Calm - N/A Fog Fog
6:35 AM - - - N/A% 30.12 in 0.2 mi Calm Calm - N/A Fog Fog
6:55 AM - - - N/A% 30.12 in 0.2 mi Calm Calm - N/A Fog Fog
7:15 AM - - - N/A% 30.12 in 0.2 mi Calm Calm - N/A Fog Fog
7:35 AM - - - N/A% 30.12 in 0.2 mi SSE 3.5 mph - N/A Fog Fog
7:55 AM - - - N/A% 30.12 in 0.2 mi South 3.5 mph - N/A Fog Fog
8:15 AM - - - N/A% 30.12 in 0.2 mi Calm Calm - N/A Fog Fog
8:35 AM - - - N/A% 30.11 in 0.2 mi South 3.5 mph - N/A Fog Fog
8:55 AM - - - N/A% 30.11 in 0.2 mi SSE 3.5 mph - N/A Fog Fog
9:15 AM 33.8 °F 28.6 °F 33.8 °F 100% 30.10 in 0.2 mi South 5.8 mph - N/A Fog Fog
9:35 AM 35.6 °F 32.8 °F 35.6 °F 100% 30.10 in 0.5 mi South 3.5 mph - N/A Fog Fog
9:55 AM 37.4 °F 32.1 °F 37.4 °F 100% 30.11 in 1.0 mi SSW 6.9 mph - N/A   Overcast
10:15 AM 39.2 °F 33.6 °F 39.2 °F 100% 30.09 in 1.8 mi South 8.1 mph - N/A   Overcast
10:35 AM 41.0 °F 35.8 °F 41.0 °F 100% 30.09 in 4.0 mi South 8.1 mph - N/A   Scattered Clouds
10:55 AM 42.8 °F 37.0 °F 42.8 °F 100% 30.07 in 7.0 mi South 10.4 mph - N/A   Clear
11:15 AM 44.6 °F 39.7 °F 44.6 °F 100% 30.06 in 10.0 mi South 9.2 mph - N/A   Clear
11:35 AM 50.0 °F - 41.0 °F 71% 30.05 in 10.0 mi South 10.4 mph 16.1 mph N/A   Clear
11:55 AM 50.0 °F - 39.2 °F 66% 30.04 in 10.0 mi SSW 12.7 mph - N/A   Clear
12:15 PM 50.0 °F - 39.2 °F 66% 30.03 in 10.0 mi SSW 11.5 mph - N/A   Clear
12:35 PM 50.0 °F - 39.2 °F 66% 30.03 in 10.0 mi SSW 11.5 mph - N/A   Clear
12:55 PM 51.8 °F - 39.2 °F 62% 30.01 in 10.0 mi SSW 10.4 mph - N/A   Clear
1:15 PM 53.6 °F - 41.0 °F 62% 30.01 in 10.0 mi SSW 10.4 mph - N/A   Clear
1:35 PM 55.4 °F - 41.0 °F 58% 29.99 in 10.0 mi SSW 8.1 mph - N/A   Clear
1:55 PM 55.4 °F - 41.0 °F 58% 29.98 in 10.0 mi SSW 6.9 mph - N/A   Clear
2:15 PM 57.2 °F - 39.2 °F 51% 29.97 in 10.0 mi SSW 12.7 mph - N/A   Clear
2:35 PM 57.2 °F - 39.2 °F 51% 29.96 in 10.0 mi SSW 9.2 mph - N/A   Clear
2:55 PM 57.2 °F - 37.4 °F 48% 29.96 in 10.0 mi South 9.2 mph - N/A   Clear
3:15 PM 55.4 °F - 37.4 °F 51% 29.95 in 10.0 mi South 11.5 mph - N/A   Clear
3:35 PM 55.4 °F - 37.4 °F 51% 29.94 in 10.0 mi SSW 10.4 mph - N/A   Clear
3:55 PM 55.4 °F - 37.4 °F 51% 29.95 in 10.0 mi South 8.1 mph - N/A   Clear
4:15 PM 53.6 °F - 39.2 °F 58% 29.94 in 10.0 mi South 9.2 mph - N/A   Clear
4:35 PM 51.8 °F - 41.0 °F 67% 29.95 in 10.0 mi South 6.9 mph - N/A   Clear
4:55 PM 50.0 °F - 41.0 °F 71% 29.95 in 10.0 mi SSW 6.9 mph - N/A   Clear
5:15 PM 50.0 °F - 41.0 °F 71% 29.95 in 10.0 mi South 8.1 mph - N/A   Clear
5:35 PM 48.2 °F - 41.0 °F 76% 29.95 in 10.0 mi South 5.8 mph - N/A   Clear
6:15 PM 46.4 °F 43.5 °F 41.0 °F 81% 29.95 in 10.0 mi South 5.8 mph - N/A   Clear
6:35 PM 46.4 °F 42.9 °F 41.0 °F 81% 29.94 in 10.0 mi South 6.9 mph - N/A   Clear
6:55 PM 46.4 °F 42.4 °F 41.0 °F 81% 29.94 in 10.0 mi South 8.1 mph - N/A   Clear
7:15 PM 48.2 °F - 41.0 °F 76% 29.94 in 10.0 mi South 8.1 mph - N/A   Clear
7:35 PM 46.4 °F 43.5 °F 41.0 °F 81% 29.94 in 10.0 mi South 5.8 mph - N/A   Clear
7:55 PM 44.6 °F 42.2 °F 39.2 °F 81% 29.94 in 10.0 mi South 4.6 mph - N/A   Clear
8:15 PM 44.6 °F 41.4 °F 39.2 °F 81% 29.94 in 10.0 mi South 5.8 mph - N/A   Clear
8:35 PM 44.6 °F 41.4 °F 41.0 °F 87% 29.93 in 10.0 mi SSW 5.8 mph - N/A   Clear
8:55 PM 44.6 °F 42.2 °F 41.0 °F 87% 29.93 in 7.0 mi SSW 4.6 mph - N/A   Clear
9:15 PM 46.4 °F 42.9 °F 41.0 °F 81% 29.93 in 7.0 mi SSW 6.9 mph - N/A   Clear
9:35 PM 46.4 °F 43.5 °F 41.0 °F 81% 29.93 in 7.0 mi SSW 5.8 mph - N/A   Clear
9:55 PM 44.6 °F 41.4 °F 41.0 °F 87% 29.93 in 7.0 mi SSW 5.8 mph - N/A   Clear
10:15 PM 42.8 °F 39.3 °F 41.0 °F 93% 29.92 in 7.0 mi South 5.8 mph - N/A   Clear
10:35 PM 44.6 °F 41.4 °F 41.0 °F 87% 29.92 in 7.0 mi SSW 5.8 mph - N/A   Clear
10:55 PM 44.6 °F 42.2 °F 41.0 °F 87% 29.92 in 7.0 mi SSW 4.6 mph - N/A   Clear
11:15 PM 44.6 °F 41.4 °F 41.0 °F 87% 29.92 in 7.0 mi SSW 5.8 mph - N/A   Clear
11:35 PM 44.6 °F 40.7 °F 41.0 °F 87% 29.92 in 7.0 mi SSW 6.9 mph - N/A   Clear
11:55 PM 44.6 °F 40.7 °F 41.0 °F 87% 29.92 in 7.0 mi SSW 6.9 mph - N/A   Clear